This is the latest recevied weather packets stored in our database for station/object W0BJ. If no packets are shown the sender has not sent any weather packets the latest 1 day(s).
| Time | Temp. | Humidity | Pressure | Rain* | Wind** | Luminosity | Snow |
|---|---|---|---|---|---|---|---|
| 1778068266 | 8.89° C | 95% | 1017.6 hPa | 0 mm | - | - | - |
| 1778067666 | 8.89° C | 94% | 1017.5 hPa | 0 mm | - | - | - |
| 1778066465 | 8.89° C | 94% | 1017.2 hPa | 0.25 mm | - | - | - |
| 1778065266 | 8.89° C | 94% | 1016.3 hPa | 0.25 mm | - | - | - |
| 1778064798 | 8.89° C | 94% | 1016.3 hPa | 0.25 mm | - | - | - |
| 1778063897 | 8.89° C | 94% | 1015.8 hPa | 0.25 mm | - | - | - |
| 1778063465 | 8.89° C | 94% | 1015.2 hPa | 0.76 mm | - | - | - |
| 1778062266 | 8.89° C | 94% | 1015.2 hPa | 1.02 mm | - | - | - |
| 1778062098 | 8.89° C | 95% | 1015.4 hPa | 1.02 mm | - | - | - |
| 1778061197 | 8.89° C | 94% | 1015.4 hPa | 1.02 mm | - | - | - |
| 1778060465 | 8.89° C | 94% | 1015.5 hPa | 1.02 mm | - | - | - |
| 1778060299 | 8.89° C | 94% | 1015.5 hPa | 1.02 mm | - | - | - |
| 1778059398 | 8.89° C | 94% | 1015.9 hPa | 0.51 mm | - | - | - |
| 1778059264 | 8.89° C | 94% | 1016 hPa | 0.25 mm | - | - | - |
| 1778058065 | 8.89° C | 94% | 1015.7 hPa | 0 mm | - | - | - |
| 1778057599 | 8.33° C | 94% | 1015.8 hPa | 0 mm | - | - | - |
| 1778057465 | 8.89° C | 94% | 1015.9 hPa | 0 mm | - | - | - |
| 1778056698 | 8.33° C | 94% | 1015.6 hPa | 0 mm | - | - | - |
| 1778056264 | 8.33° C | 94% | 1015.6 hPa | 0 mm | - | - | - |
| 1778055063 | 8.33° C | 93% | 1015.6 hPa | 0.51 mm | - | - | - |
| 1778054899 | 8.33° C | 93% | 1015.7 hPa | 0.51 mm | - | - | - |
| 1778053864 | 8.33° C | 93% | 1015.3 hPa | 0.51 mm | - | - | - |
| 1778053097 | 8.33° C | 93% | 1015.3 hPa | 0.51 mm | - | - | - |
| 1778052547 | 8.33° C | 93% | 1015.3 hPa | 0.76 mm | - | - | - |
| 1778051946 | 8.33° C | 93% | 1015.6 hPa | 0.51 mm | - | - | - |
* Rain latest hour (hover to see other rain measurements)
** Current wind speed in m/s (hover to see current wind gust speed)